Grayling, MI

2:15 AM EDT on July 26, 2017 (GMT -0400)
Grayling

Weather History for KGOV - March, 2014

Change the Weather History Date:

Sunday, March 23, 2014

  Actual Average (KHTL) Record (KHTL)
Temperature  
Mean Temperature 8 °F -  
Max Temperature 19 °F 41 °F 75 °F (1938)
Min Temperature -2 °F 20 °F -12 °F (1940)
Degree Days  
Heating Degree Days 56    
Moisture  
Dew Point 0 °F    
Average Humidity 68    
Maximum Humidity 87    
Minimum Humidity 44    
Precipitation  
Precipitation 0.00 in - - ()
Sea Level Pressure  
Sea Level Pressure 30.30 in    
Wind  
Wind Speed 6 mph (WNW)    
Max Wind Speed 14 mph    
Max Gust Speed 22 mph    
Visibility 10 miles    
Events      
Averages and records for this station are not official NWS values.
T = Trace of Precipitation, MM = Missing Value Source: NWS Daily Summary

Daily Weather History Graph

Daily Weather History Graph

Search for Another Location

Airport or City:

Trip Planner

Search our weather history database for the weather conditions in past years. The results will help you decide how hot, cold, wet, or windy it might be!

Date:

Astronomy

Mar. 23, 2014 Rise Set
Actual Time 7:36 AM EDT 7:55 PM EDT
Civil Twilight 7:07 AM EDT 8:24 PM EDT
Nautical Twilight 6:33 AM EDT 8:58 PM EDT
Astronomical Twilight 5:57 AM EDT 9:34 PM EDT
Moon 2:23 AM EDT (3/23) 12:05 PM EDT (3/23)
Length of Visible Light 13h 17m
Length of Day
12h 18m
Waning Gibbous, 55% of the Moon is Illuminated
Mar 23
Waning Gibbous
Mar 23
Last Quarter
Mar 30
New
Apr 7
First Quarter
Apr 15
Full

Hourly Weather History & Observations

Time (EDT) Temp. Windchill Dew Point Humidity Pressure Visibility Wind Dir Wind Speed Gust Speed Precip Events Conditions
12:15 AM 7.7 °F -6.6 °F 0.7 °F 73% 30.27 in 10.0 mi North 10.4 mph - N/A   Clear
12:35 AM 7.7 °F -6.6 °F 0.9 °F 74% 30.27 in 10.0 mi NNW 10.4 mph - N/A   Clear
12:55 AM 7.7 °F -5.8 °F 1.2 °F 75% 30.27 in 10.0 mi NNW 9.2 mph - N/A   Clear
1:15 AM 7.7 °F -3.7 °F 1.4 °F 75% 30.28 in 10.0 mi NNW 6.9 mph - N/A   Clear
1:35 AM 7.7 °F -0.9 °F 1.4 °F 75% 30.28 in 10.0 mi NW 4.6 mph - N/A   Clear
1:55 AM 6.4 °F -3.9 °F 0.1 °F 75% 30.29 in 10.0 mi WNW 5.8 mph - N/A   Clear
2:14 AM 6.6 °F -2.2 °F 0.9 °F 77% 30.29 in 10.0 mi WNW 4.6 mph - N/A   Clear
2:35 AM 5.4 °F -1.7 °F -0.2 °F 78% 30.29 in 10.0 mi West 3.5 mph - N/A   Clear
2:55 AM 4.8 °F - -0.0 °F 80% 30.29 in 10.0 mi Calm Calm - N/A   Clear
3:14 AM 1.8 °F - -2.4 °F 83% 30.29 in 10.0 mi Calm Calm - N/A   Clear
3:35 AM 0.9 °F - -2.4 °F 86% 30.28 in 7.0 mi Calm Calm - N/A   Clear
3:55 AM 0.9 °F - -2.2 °F 87% 30.28 in 10.0 mi Calm Calm - N/A   Clear
4:15 AM 0.7 °F - -2.4 °F 87% 30.28 in 10.0 mi Calm Calm - N/A   Clear
4:35 AM 1.0 °F - -2.0 °F 87% 30.28 in 10.0 mi Calm Calm - N/A   Clear
4:55 AM 0.3 °F - -2.7 °F 87% 30.28 in 10.0 mi Calm Calm - N/A   Clear
5:15 AM 0.9 °F -6.9 °F -2.2 °F 87% 30.29 in 10.0 mi WSW 3.5 mph - N/A   Clear
5:35 AM 0.3 °F - -2.7 °F 87% 30.29 in 10.0 mi Calm Calm - N/A   Clear
5:54 AM 0.5 °F - -3.1 °F 85% 30.29 in 10.0 mi Calm Calm - N/A   Clear
6:15 AM -0.2 °F -8.1 °F -3.3 °F 87% 30.30 in 10.0 mi WSW 3.5 mph - N/A   Clear
6:35 AM -0.9 °F - -4.5 °F 85% 30.30 in 10.0 mi Calm Calm - N/A   Clear
6:54 AM -0.4 °F -8.3 °F -4.0 °F 85% 30.30 in 10.0 mi WSW 3.5 mph - N/A   Clear
7:15 AM -1.8 °F - -5.8 °F 83% 30.31 in 10.0 mi Calm Calm - N/A   Clear
7:35 AM -2.6 °F -10.8 °F -6.7 °F 82% 30.31 in 10.0 mi WSW 3.5 mph - N/A   Clear
7:55 AM -2.0 °F - -5.6 °F 85% 30.32 in 10.0 mi Calm Calm - N/A   Clear
8:15 AM -2.0 °F - -6.3 °F 82% 30.32 in 10.0 mi Calm Calm - N/A   Clear
8:35 AM 1.6 °F -6.0 °F -2.2 °F 84% 30.32 in 10.0 mi WSW 3.5 mph - N/A   Clear
8:55 AM 4.8 °F -5.8 °F 1.6 °F 86% 30.32 in 10.0 mi West 5.8 mph - N/A   Clear
9:15 AM 7.7 °F -2.4 °F 4.3 °F 86% 30.32 in 10.0 mi West 5.8 mph - N/A   Clear
9:34 AM 9.0 °F 0.6 °F 5.0 °F 84% 30.32 in 10.0 mi West 4.6 mph - N/A   Scattered Clouds
9:55 AM 12.7 °F 0.4 °F 7.3 °F 79% 30.32 in 10.0 mi West 9.2 mph - N/A   Mostly Cloudy
10:15 AM 12.9 °F 2.6 °F 6.1 °F 74% 30.32 in 10.0 mi West 6.9 mph - N/A   Mostly Cloudy
10:34 AM 13.1 °F 4.0 °F 3.9 °F 67% 30.32 in 10.0 mi WNW 5.8 mph - N/A   Scattered Clouds
10:55 AM 15.3 °F 4.4 °F 5.5 °F 65% 30.32 in 10.0 mi NW 8.1 mph - N/A   Scattered Clouds
11:15 AM 15.4 °F 6.8 °F 5.2 °F 64% 30.32 in 10.0 mi WNW 5.8 mph - N/A   Scattered Clouds
11:35 AM 15.4 °F 3.8 °F 4.3 °F 61% 30.32 in 10.0 mi NW 9.2 mph - N/A   Mostly Cloudy
11:55 AM 15.4 °F 8.1 °F 2.5 °F 57% 30.32 in 10.0 mi NNW 4.6 mph 16.1 mph N/A   Overcast
12:15 PM 15.6 °F 3.2 °F 2.7 °F 57% 30.32 in 10.0 mi West 10.4 mph - N/A   Overcast
12:35 PM 16.7 °F 3.8 °F 3.2 °F 55% 30.32 in 7.0 mi NW 11.5 mph 18.4 mph N/A   Overcast
12:55 PM 18.0 °F 6.1 °F 3.2 °F 53% 30.32 in 10.0 mi West 10.4 mph - N/A   Overcast
1:14 PM 17.8 °F 5.9 °F 3.9 °F 55% 30.31 in 5.0 mi West 10.4 mph 19.6 mph N/A   Haze
1:35 PM 18.0 °F 7.7 °F 3.7 °F 54% 30.31 in 10.0 mi WNW 8.1 mph - N/A   Overcast
1:55 PM 18.0 °F 4.2 °F 1.8 °F 49% 30.31 in 10.0 mi WNW 13.8 mph - N/A   Overcast
2:15 PM 18.0 °F 6.9 °F 2.3 °F 50% 30.30 in 10.0 mi NW 9.2 mph 18.4 mph N/A   Overcast
2:35 PM 17.8 °F 4.6 °F 1.9 °F 50% 30.30 in 10.0 mi WNW 12.7 mph 17.3 mph N/A   Overcast
2:55 PM 18.1 °F 4.4 °F 1.4 °F 48% 30.29 in 10.0 mi WNW 13.8 mph 19.6 mph N/A   Overcast
3:15 PM 18.3 °F 5.2 °F 1.4 °F 48% 30.28 in 10.0 mi West 12.7 mph 18.4 mph N/A   Overcast
3:34 PM 18.1 °F 7.9 °F 1.8 °F 49% 30.28 in 10.0 mi WNW 8.1 mph 11.5 mph N/A   Overcast
3:55 PM 18.9 °F 6.5 °F 1.4 °F 47% 30.28 in 10.0 mi West 11.5 mph 17.3 mph N/A   Overcast
4:15 PM 18.9 °F 6.5 °F 0.1 °F 44% 30.28 in 10.0 mi West 11.5 mph 17.3 mph N/A   Overcast
4:35 PM 19.4 °F 6.0 °F 0.9 °F 45% 30.27 in 10.0 mi NW 13.8 mph 19.6 mph N/A   Overcast
4:55 PM 18.3 °F 5.9 °F 1.0 °F 47% 30.27 in 10.0 mi WNW 11.5 mph 17.3 mph N/A   Overcast
5:14 PM 18.0 °F 4.2 °F 2.5 °F 51% 30.28 in 10.0 mi NW 13.8 mph 18.4 mph N/A   Overcast
5:35 PM 17.2 °F 3.9 °F 2.5 °F 52% 30.28 in 10.0 mi NW 12.7 mph 21.9 mph N/A   Overcast
5:55 PM 18.1 °F 5.6 °F 0.3 °F 46% 30.28 in 10.0 mi West 11.5 mph 20.7 mph N/A   Mostly Cloudy
6:15 PM 17.6 °F 5.0 °F 0.5 °F 47% 30.28 in 10.0 mi WNW 11.5 mph 18.4 mph N/A   Scattered Clouds
6:35 PM 15.8 °F 3.4 °F -0.4 °F 49% 30.28 in 10.0 mi WNW 10.4 mph 16.1 mph N/A   Scattered Clouds
6:54 PM 15.6 °F 4.9 °F -0.4 °F 49% 30.28 in 10.0 mi WNW 8.1 mph - N/A   Scattered Clouds
7:15 PM 15.4 °F 4.6 °F 0.1 °F 51% 30.28 in 10.0 mi NW 8.1 mph - N/A   Clear
7:35 PM 15.4 °F 3.8 °F 0.1 °F 51% 30.29 in 10.0 mi WNW 9.2 mph - N/A   Scattered Clouds
7:54 PM 15.1 °F 3.3 °F 0.3 °F 52% 30.29 in 10.0 mi WNW 9.2 mph - N/A   Scattered Clouds
8:15 PM 13.8 °F 3.7 °F -0.4 °F 53% 30.29 in 10.0 mi WNW 6.9 mph - N/A   Clear
8:35 PM 12.9 °F 5.2 °F -0.4 °F 55% 30.29 in 10.0 mi West 4.6 mph - N/A   Clear
8:55 PM 12.9 °F 6.9 °F 0.3 °F 57% 30.30 in 10.0 mi West 3.5 mph - N/A   Clear
9:15 PM 11.5 °F 5.3 °F -0.2 °F 59% 30.30 in 10.0 mi West 3.5 mph - N/A   Clear
9:34 PM 10.4 °F 2.2 °F -0.4 °F 62% 30.30 in 10.0 mi WNW 4.6 mph - N/A   Clear
9:55 PM 8.6 °F - -1.1 °F 65% 30.30 in 10.0 mi Calm Calm - N/A   Clear
10:15 PM 2.8 °F - -4.0 °F 73% 30.30 in 10.0 mi Calm Calm - N/A   Clear
10:35 PM 5.4 °F - -2.0 °F 72% 30.30 in 10.0 mi Calm Calm - N/A   Clear
10:55 PM 0.3 °F - -5.8 °F 75% 30.30 in 10.0 mi Calm Calm - N/A   Clear
11:14 PM 1.8 °F - -3.8 °F 77% 30.30 in 10.0 mi Calm Calm - N/A   Clear
11:35 PM 0.1 °F - -4.5 °F 81% 30.30 in 10.0 mi Calm Calm - N/A   Clear
11:55 PM -1.3 °F - -5.6 °F 82% 30.30 in 10.0 mi Calm Calm - N/A   Clear